Regional Weather Roundup
Issued by NWS

Home | Current Version | Previous Version | Text Only | Print | Product List | Glossary Off
Versions: 1 2 3 4 5 6 7 8 9 10 11 12 13 14 15 16 17 18 19 20 21 22 23 24 25 26 27 28 29 30 31 32 33 34 35 36 37 38 39 40 41 42 43 44 45 46 47 48 49 50

000
ASUS43 KLSX 011759
RWRMO

WEATHER SUMMARY FOR MISSOURI
NATIONAL WEATHER SERVICE SPRINGFIELD MO
1200 PM CST SUN FEB 01 2015

NOTE: "FAIR" INDICATES FEW OR NO CLOUDS BELOW 12,000 FEET WITH NO
       SIGNIFICANT WEATHER AND/OR OBSTRUCTIONS TO VISIBILITY.
       CURRENT SKY AND/OR WEATHER CONDITIONS ARE NOT AVAILABLE FOR
       CHILLICOTHE AND FARMINGTON.

MOZ001>031-035>038-043-044-053-054-011900-
...NORTHERN AND WESTERN MISSOURI...

CITY           SKY/WX    TMP DP  RH WIND       PRES   REMARKS
KANSAS CTY INT SNOW      29  26  89 NW21G32   29.81R VSB 1/2 WCI  16
6HR MIN TEMP:  29; 6HR MAX TEMP:  34; 6HR PCP:  0.10;

KANSAS C DTWN  FLURRIES  33  31  92 NW22G32   29.81R WCI  21
6HR MIN TEMP:  33; 6HR MAX TEMP:  34; 6HR PCP:  0.01;

LEE`S SUMMIT   LGT SNOW  33  31  92 NW14      29.79R FOG     WCI  23
6HR MIN TEMP:  33; 6HR MAX TEMP:  34; 6HR PCP:  0.04;

ST JOSEPH      LGT SNOW  26  22  84 NW28G39   29.86R VSB 3/4 WCI  10
6HR MIN TEMP:  26; 6HR MAX TEMP:  33; 6HR PCP:  0.05;

CHILLICOTHE      N/A     35  32  88 NW7       29.76S WCI  29
6HR MIN TEMP:  33; 6HR MAX TEMP:  35; 6HR PCP:  0.06;

KIRKSVILLE     LGT SNOW  34  33  96 N8        29.70F VSB 1   WCI  27
6HR MIN TEMP:  32; 6HR MAX TEMP:  34;


$$
MOZ066>068-077>081-088>096-101>105-011900-
...SOUTHWEST MISSOURI...

CITY           SKY/WX    TMP DP  RH WIND       PRES   REMARKS
SPRINGFIELD    LGT RAIN  40  38  93 W23G37    29.75R FOG     WCI  30
6HR MIN TEMP:  38; 6HR MAX TEMP:  44; 6HR PCP:  0.05;

JOPLIN         CLOUDY    35  32  88 NW23G31   29.86R WCI  23
6HR MIN TEMP:  35; 6HR MAX TEMP:  43; 6HR PCP:  0.07;


$$
MOZ032>034-039>042-045>050-055>058-069>072-011900-
...CENTRAL MISSOURI...

CITY           SKY/WX    TMP DP  RH WIND       PRES   REMARKS
COLUMBIA       CLOUDY    37  37 100 W10       29.68F WCI  30
6HR MIN TEMP:  33; 6HR MAX TEMP:  37; 6HR PCP:  0.09;

JEFFERSON CITY CLOUDY    41  37  86 W8        29.70F
6HR MIN TEMP:  35; 6HR MAX TEMP:  42; 6HR PCP:  0.10;

ROLLA          CLOUDY    40  38  93 W10       29.66F
6HR MIN TEMP:  35; 6HR MAX TEMP:  40; 6HR PCP:  0.04;

SEDALIA        FRZ RAIN  36  34  92 NW13      29.73R FOG     WCI  27
6HR MIN TEMP:  34; 6HR MAX TEMP:  38; 6HR PCP:  0.11;

OSAGE BEACH    CLOUDY    43  39  87 SW8       29.70S

$$
MOZ051-052-059>065-011900-
...EAST CENTRAL MISSOURI...

CITY           SKY/WX    TMP DP  RH WIND       PRES   REMARKS
ST LOUIS INTL  LGT RAIN  40  37  89 SW7       29.67F FOG
6HR MIN TEMP:  35; 6HR MAX TEMP:  40; 6HR PCP:  0.10;

SPIRIT OF STL  CLOUDY    39  38  96 W3        29.66F FOG
6HR MIN TEMP:  35; 6HR MAX TEMP:  39; 6HR PCP:  0.06;

ST CHARLES     LGT RAIN  38  37  97 W5        29.68F FOG
6HR MIN TEMP:  34; 6HR MAX TEMP:  38; 6HR PCP:  0.14;


$$
MOZ072>076-082>087-097>100-106>115-011900-
...SOUTH CENTRAL AND SOUTHEAST MISSOURI...

CITY           SKY/WX    TMP DP  RH WIND       PRES   REMARKS
CAPE GIRARDEAU LGT RAIN  46  45  96 SW6       29.70F FOG
6HR MIN TEMP:  41; 6HR MAX TEMP:  46; 6HR PCP:  0.60;

FARMINGTON     CLOUDY    43  39  87 S7        29.70F
6HR MIN TEMP:  36; 6HR MAX TEMP:  43; 6HR PCP:  0.18;

POPLAR BLUFF   CLOUDY    46  43  89 SW5       29.70F FOG
6HR MIN TEMP:  41; 6HR MAX TEMP:  46; 6HR PCP:  0.45;

WEST PLAINS    CLOUDY    45  42  89 W13G21    29.70F FOG
6HR MIN TEMP:  38; 6HR MAX TEMP:  46; 6HR PCP:  0.01;


$$



USA.gov is the U.S. government's official web portal to all federal, state and local government web resources and services.